Weather History for Christchurch, New Zealand

Change the Weather History Date:

Wednesday, January 23, 2013

  Actual Average Record
Temperature  
Mean Temperature 68 °F -  
Max Temperature 86 °F 68 °F 86 °F (2013)
Min Temperature 51 °F 51 °F 44 °F (2012)
Cooling Degree Days 4    
Growing Degree Days 18 (Base 50)    
Moisture  
Dew Point 52 °F    
Average Humidity 68    
Maximum Humidity 100    
Minimum Humidity 23    
Precipitation  
Precipitation 0.00 in - - ()
Sea Level Pressure  
Sea Level Pressure 29.98 in    
Wind  
Wind Speed 5 mph ()    
Max Wind Speed 18 mph    
Max Gust Speed -    
Visibility 2.2 miles    
Events Fog    
Averages and records for this station are not official NWS values.
T = Trace of Precipitation, MM = Missing Value Source: Averaged Metar Reports

Daily Weather History Graph

Daily Weather History Graph

Search for Another Location

Airport:

Trip Planner

Search our weather history database for the weather conditions in past years. The results will help you decide how hot, cold, wet, or windy it might be!

Date:

Astronomy

Jan. 23, 2013 Rise Set
Actual Time 6:17 AM NZDT 9:04 PM NZDT
Civil Twilight 5:44 AM NZDT 9:38 PM NZDT
Nautical Twilight 5:02 AM NZDT 10:19 PM NZDT
Astronomical Twilight 4:13 AM NZDT 11:08 PM NZDT
Moon 5:57 PM NZDT (1/23) 2:38 AM NZDT (1/23)
Length of Visible Light 15h 53m
Length of Day
14h 47m
Waxing Gibbous, 84% of the Moon is Illuminated
Jan 23
Waxing Gibbous
Jan 27
Full
Feb 4
Last Quarter
Feb 10
New
Feb 18
First Quarter

Hourly Weather History & Observations

Time (NZDT) Temp. Dew Point Humidity Pressure Visibility Wind Dir Wind Speed Gust Speed Precip Events Conditions
12:00 AM 60.8 °F 59.0 °F 94% 30.04 in 6.2 mi NNE 4.6 mph - N/A   Mostly Cloudy
12:25 AM 60.8 °F 59.0 °F 94% 30.04 in 3.1 mi North 4.6 mph - N/A   Mostly Cloudy
12:40 AM 60.8 °F 59.0 °F 94% 30.04 in 0.9 mi NNE 4.6 mph - N/A   Mostly Cloudy
1:00 AM 59.0 °F 59.0 °F 100% 30.04 in 1.2 mi NNE 3.5 mph - N/A   Mostly Cloudy
1:20 AM 59.0 °F 59.0 °F 100% 30.01 in 0.5 mi North 3.5 mph - N/A Fog Fog
2:00 AM 59.0 °F 59.0 °F 100% 30.01 in 0.2 mi North 3.5 mph - N/A Fog Fog
3:00 AM 59.0 °F 57.2 °F 94% 30.01 in 0.1 mi NNW 2.3 mph - N/A Fog Fog
3:20 AM 57.2 °F 57.2 °F 100% 30.01 in 0.2 mi North 3.5 mph - N/A Fog Fog
4:00 AM 57.2 °F 57.2 °F 100% 30.01 in 0.2 mi West 2.3 mph - N/A Fog Fog
4:40 AM 55.4 °F 55.4 °F 100% 30.01 in 0.1 mi WNW 2.3 mph - N/A Fog Fog
5:00 AM 55.4 °F 55.4 °F 100% 30.01 in 0.1 mi NW 2.3 mph - N/A Fog Fog
5:20 AM 53.6 °F 53.6 °F 100% 30.01 in - West 1.2 mph - N/A   Clear
5:35 AM 51.8 °F 51.8 °F 100% 30.01 in 0.2 mi North 1.2 mph - N/A Fog Fog
6:00 AM 53.6 °F 53.6 °F 100% 30.01 in 0.2 mi NNW 3.5 mph - N/A Fog Fog
6:15 AM 51.8 °F 51.8 °F 100% 30.01 in 6.2 mi West 2.3 mph - N/A   Unknown
7:00 AM 51.8 °F 51.8 °F 100% 30.01 in 6.2 mi NW 2.3 mph - N/A   Unknown
8:00 AM 59.0 °F 59.0 °F 100% 30.01 in - NE 2.3 mph - N/A   Clear
9:00 AM 68.0 °F 60.8 °F 78% 30.01 in - ENE 2.3 mph - N/A   Clear
10:00 AM 75.2 °F 50.0 °F 41% 29.98 in - East 3.5 mph - N/A   Clear
11:00 AM 80.6 °F 46.4 °F 30% 29.98 in - North 3.5 mph - N/A   Clear
12:00 PM 82.4 °F 44.6 °F 26% 29.98 in - WNW 4.6 mph - N/A   Clear
1:00 PM 84.2 °F 42.8 °F 23% 29.95 in - North 9.2 mph - N/A   Clear
2:00 PM 86.0 °F 44.6 °F 23% 29.92 in - WNW 12.7 mph - N/A   Clear
3:00 PM 86.0 °F 44.6 °F 23% 29.92 in - WNW 12.7 mph - N/A   Clear
4:00 PM 86.0 °F 46.4 °F 25% 29.92 in - WNW 17.3 mph - N/A   Clear
5:00 PM 86.0 °F 46.4 °F 25% 29.92 in - WNW 17.3 mph - N/A   Clear
6:00 PM 84.2 °F 46.4 °F 27% 29.92 in - WNW 18.4 mph - N/A   Clear
7:00 PM 82.4 °F 48.2 °F 30% 29.92 in - WNW 18.4 mph - N/A   Clear
8:00 PM 80.6 °F 48.2 °F 32% 29.92 in - WNW 18.4 mph - N/A   Clear
9:00 PM 75.2 °F 48.2 °F 38% 29.95 in 6.2 mi WNW 12.7 mph - N/A   Unknown
10:00 PM 71.6 °F 48.2 °F 43% 29.95 in - WNW 9.2 mph - N/A   Clear
11:00 PM 71.6 °F 46.4 °F 41% 29.98 in 6.2 mi WNW 10.4 mph - N/A   Partly Cloudy